カタログに戻る

STARLINK-34601

運用中通信VLEO
NORAD 65084·PAYLOAD·🇺🇸 United States

打ち上げ Aug 4, 2025 から Cape Canaveral Space Force Station

Loading…

次のパス (今後24時間)

TLE

最新Source: CelesTrak SupGP

元期: Sep 15, 2026, 04:03 UTC

1 65084C 25167G   26258.16923611 -.00053133  00000+0 -15700-2 0  2585
2 65084  53.1575 218.8308 0001461  93.1364  85.1076 15.34413294    13

AllMySatでSTARLINK-34601をリアルタイム追跡

Download on the App Store